Regional Weather Roundup
Issued by NWS

Home | Current Version | Previous Version | Graphics & Text | Print | Product List | Glossary On
Versions: 1 2 3 4 5 6 7 8 9 10 11 12 13 14 15 16 17 18 19 20 21 22 23 24 25 26 27 28 29 30 31 32 33 34 35 36 37 38 39 40 41 42 43 44 45 46 47 48 49 50
557
ASUS44 KMEG 300410
RWRTN
TENNESSEE HOURLY STATE WEATHER ROUNDUP
NATIONAL WEATHER SERVICE MEMPHIS TN
1100 PM CDT FRI APR 29 2016

TNZ002-004-019-021-049-052-054-088>092-300500-
WEST TENNESSEE

CITY           SKY/WX    TMP DP  RH WIND       PRES   REMARKS
MEMPHIS INTL   CLOUDY    65  61  87 SE7       29.82S
NWS MEMPHIS      N/A     63 N/A N/A MISG        N/A
JACKSON        CLOUDY    63  58  83 E3        29.88S
DYERSBURG      CLOUDY    63  57  82 E6          N/A
UNION CITY     CLEAR     61  61 100 CALM      29.90R
LEXINGTON      MOCLDY    63  57  82 CALM      29.89F
$$

TNZ008-025-027-028-033-062-065-066-300500-
NORTH MIDDLE TENNESSEE

CITY           SKY/WX    TMP DP  RH WIND       PRES   REMARKS
NASHVILLE      MOCLDY    66  58  75 E5        29.95F
CLARKSVILLE    CLOUDY    63  59  87 E6        29.95F
SMYRNA         CLOUDY    64  61  90 CALM      29.96F
COOKEVILLE     MOCLDY    64  59  82 E6        29.98F
CROSSVILLE     CLOUDY    64  54  69 CALM      30.03F
$$

TNZ061-075-076-078-094-096-097-300500-
SOUTH MIDDLE TENNESSEE

CITY           SKY/WX    TMP DP  RH WIND       PRES   REMARKS
FAYETTEVILLE   MOCLDY    63  59  88 S7        29.95F
TULLAHOMA      CLEAR     64  57  77 SE7       29.97F
WINCHESTER     PTCLDY    66  55  68 SE5       29.96F
MCMINNVILLE    MOCLDY    64  61  88 CALM      29.98F
COLUMBIA         N/A    N/A N/A N/A E3        29.91F
SHELBYVILLE    CLEAR     63  61  94 CALM      29.96F
$$

TNZ017-018-042-046-047-300500-
NORTHEAST TENNESSEE

CITY           SKY/WX    TMP DP  RH WIND       PRES   REMARKS
TRI CITIES     CLOUDY    61  55  81 CALM      30.04S
$$

TNZ012-013-036-069-073-074-300500-
CENTRAL EAST TENNESSEE

CITY           SKY/WX    TMP DP  RH WIND       PRES   REMARKS
KNOXVILLE      CLOUDY    68  55  63 CALM      29.99F
OAK RIDGE      CLOUDY    67  60  78 CALM      30.00F
MORRISTOWN     MOCLDY    64  55  72 CALM      30.01F
$$

TNZ083-085-099-300500-
SOUTHEAST TENNESSEE

CITY           SKY/WX    TMP DP  RH WIND       PRES   REMARKS
CHATTANOOGA    CLOUDY    70  56  61 CALM      29.99F
$$

SKY/WX REPORTED AS FAIR MEANS FEW OR NO CLOUDS BELOW
12 THOUSAND FEET.





USA.gov is the U.S. government's official web portal to all federal, state and local government web resources and services.